Regional Weather Roundup
Issued by NWS Albany, NY

Home | Current Version | Previous Version | Text Only | Print | Product List | Glossary On
Versions: 1 2 3 4 5 6 7 8 9 10 11 12 13 14 15 16 17 18 19 20 21 22 23 24 25 26 27
000
ASUS41 KALY 241110
RWRALY

NEW YORK STATE HOURLY WEATHER ROUNDUP
NATIONAL WEATHER SERVICE ALBANY NY
700 AM EDT THU APR 24 2014

NOTE: "FAIR" INDICATES FEW OR NO CLOUDS BELOW 12,000 FEET WITH NO
SIGNIFICANT WEATHER AND/OR NO OBSTRUCTIONS TO VISIBILITY.

NYZ032-033-038>043-046>054-057>066-NYZ062>081-241200-
EAST


CITY           SKY/WX    TMP DP  RH WIND       PRES   REMARKS
ALBANY         CLEAR     38  15  39 W16G24    29.88R WCI  29
GLENS FALLS    SUNNY     40  16  37 NW18G30   29.85R WCI  31
POUGHKEEPSIE   CLEAR     42  14  32 W14G21    29.87R
NEWBURGH       CLEAR     37  19  48 W7        29.89R WCI  32
MONTGOMERY     CLEAR     40  16  37 NW13G23   29.89R WCI  32
WHITE PLAINS   CLEAR     41  17  38 NW17G23   29.84R
ISLIP          MOSUNNY   43  25  49 W10       29.83R
NEW YORK CITY  PTCLDY    43  18  36 NW20G26   29.89R
CENTRAL PARK   CLEAR     43  17  35 MISG      29.91R
$$

NYZ005>009-017-018-044>046-055-056-241200-
CENTRAL


CITY           SKY/WX    TMP DP  RH WIND       PRES   REMARKS
FULTON         CLEAR     36  20  52 NW12      30.04R WCI  28
SYRACUSE       CLEAR     35  21  56 W9        30.04R WCI  28
ROME           CLEAR     32  20  61 W12       30.00R WCI  23
ELMIRA         CLEAR     31  20  63 SW7       30.05R WCI  24
BINGHAMTON     CLEAR     31  19  61 NW7       29.96R WCI  24
MONTICELLO     CLEAR     34  16  47 NW17G28   29.89R WCI  23
$$

NYZ026>034-041>043-241200-
NORTH


CITY           SKY/WX    TMP DP  RH WIND       PRES   REMARKS
WATERTOWN      CLEAR     35  17  47 NW10      30.04R WCI  27
FORT DRUM      NOT AVBL
MASSENA        CLEAR     33  20  58 W10       29.99R WCI  25
SARANAC LAKE   CLEAR     28  15  58 VRB7G17   29.86R WCI  21
PLATTSBURGH    CLOUDY    35  17  47 NW14G24   29.87R WCI  26
$$

NYZ001>004-010>016-019>021-241200-
WEST


CITY           SKY/WX    TMP DP  RH WIND       PRES   REMARKS
NIAGARA FALLS  PTCLDY    34  23  64 NW8       30.13R WCI  27
BUFFALO        PTCLDY    34  22  61 NW7       30.13R WCI  28
DUNKIRK        CLEAR     26  23  88 SW3       30.15R
JAMESTOWN      CLEAR     30  18  59 NW7       30.11R WCI  23
WELLSVILLE     CLEAR     29  17  61 NW9       30.06R WCI  20
ROCHESTER      CLEAR     33  22  63 W7        30.11R WCI  27
PENN YAN       CLEAR     34  20  56 NW8       30.06R WCI  27
$$

             KEY
       WCI = WIND CHILL INDEX
       VSB = VISIBILITY
       HX  = HEAT INDEX
$$



USA.gov is the U.S. government's official web portal to all federal, state and local government web resources and services.